COSMOS 2144

Satellite information

Favourite Embed

Satellite Type and Status

PAYLOADIN ORBIT

Key statistics

Satellite COSMOS 2144 at a glance.

Uptime

12472

Days in orbit

Revolutions

≈ 12.6

Per day

Orbit

LEO

Low Earth Orbit

Inclination

82.6

Latest

Satellite identification and parameters

Extended collection of information and parameters for COSMOS 2144.

Object identification

Identified? True

Debris? False

Object name: COSMOS 2144

International designator: 1991-033B

Object number (NORAD): 21300

Object ID (CCSDS): 21300

Country: COMMONWEALTH OF INDEPENDENT STATES (CIS)

Current information (Y/N): Y

RCS size: MEDIUM

Orbital parameters

Period: 114.07 minutes

Inclination: 82.5764 deg

SMA: 7791.267 km

Apoapsis: 1417.314 km

Periapsis: 1408.951 km

RAAN: 189.2323 deg

Eccentricy: 0.0005367

Argument of periapsis: 157.0551 deg

Mean anomaly: 203.078 deg

Mean motion: 12.6238143 rev/day

Mean motion (dot): 0.00000033 rev/day2

B* drag term: 0.00012734 1/REarth

Two-line elements (TLE)

Creation date: July 8, 2025, 2:27 a.m.

Reference frame: TEME

Reference center: EARTH

Epoch: July 7, 2025, 5:11 p.m. UTC

TLE line 0: 0 COSMOS 2144

TLE line 1: 1 21300U 91033B 25188.71659542 .00000033 00000-0 12734-3 0 9991

TLE line 2: 2 21300 82.5764 189.2323 0005367 157.0551 203.0780 12.62381430572995

Live tracking on map

Real-time ground track for satellite COSMOS 2144.

In-orbit conjunctions

A list of the most updated potential collisions computed for object COSMOS 2144.

Target Orbit TCA Probability of collision Miss distance Type
COSMOS 2491 DEB LEO 2024-09-03 03:56:27 0.0001167846 385.0 (m) DEBRIS

Associated space launch

Second generation store-dump military communications satellite

COSMOS 2144 was lifted into orbit during the mission ‘Tsiklon-3 | Strela-3 61 to 66’, on board a Tsiklon-3 space rocket.

The launch took place on May 16, 1991, 9:40 p.m. from 32/2.

For more information about the launch, click the button.

Launch to space Tsiklon-3 | Strela-3 61 to 66
Tsiklon-3 | Strela-3 61 to 66

Agency: N/A

Status: Launch Successful

Launch date: May 16, 1991, 9:40 p.m. UTC

Rocket: Tsiklon-3

Launch pad: 32/2

Location: Plesetsk Cosmodrome, Russian Federation

...

Latest news about this satellite

There are no fresh news available about this satellite. Check back as we update our databases every day.


Newsletter sign-up

Weekly statistics, charts and insights to help you stay on top of the space industry.